Terminal Aerodrome Forecast
Issued by NWS Wilmington, OH

Current Version | Previous Version | Text Only | Print | Product List | Glossary Off
Versions: 1 2 3 4 5 6 7 8 9 10 11 12 13 14 15 16 17 18 19 20 21 22 23

479
FTUS41 KILN 030958 AAA
TAFDAY
TAF AMD
KDAY 030958Z 0310/0406 28008KT P6SM OVC035
     FM031300 28008KT P6SM OVC025
     FM032200 22003KT P6SM BKN035=

USA.gov is the U.S. government's official web portal to all federal, state and local government web resources and services.